Notices

What's New in latest Release from April 7th, 2021:

- Updated Glossary, including Speed of Maximum Gust, and Total Hourly Precipitation

- Updated national and regional climate services offices contacts and prices information

- Addition of station inventory lists for 1981-2010, 1971-2000, and 1961-1990 Normals.

If you haven't already, please take our survey and provide feedback about our website: https://eccc.sondage-survey.ca/f/LanguageSelection.aspx?s=442ca660-fcf1-47c0-95a9-59707d6fd709

Hourly Data Report for October 25, 2020

CARBERRY CS
MANITOBA
Current Station Operator: ECCC - MSC

49°54'20.900" N
99°21'26.800" W
383.50 m
5010547
71170
WZE

Download Data

Hourly Data (October 2020)
Hourly Data Report for October 25, 2020
TIME
LST
Temp Definition
°C
Dew Point Definition
°C
Rel Hum Definition
%
Precip. Amount Definition
mm

Wind Dir Definition
10's deg

Wind Spd Definition
km/h
Visibility Definition
km
Stn Press Definition
kPa
Hmdx Definition


Wind Chill Definition


Weather Definition


00:00 -5.7 -8.3 82 0.0 27 9   98.31   -10 LegendNANA
01:00 -6.0 -8.7 81 0.0 26 10   98.31   -10 LegendNANA
02:00 -6.3 -8.6 84 0.0 26 12   98.28   -11 LegendNANA
03:00 -6.4 -8.5 85 0.0 26 12   98.27   -12 LegendNANA
04:00 -6.4 -8.4 85 0.0 27 12   98.24   -12 LegendNANA
05:00 -6.6 -9.1 82 0.0 27 13   98.22   -12 LegendNANA
06:00 -6.7 -9.1 83 0.0 28 13   98.21   -12 LegendNANA
07:00 -6.7 -9.2 82 0.0 28 11   98.22   -12 LegendNANA
08:00 -6.4 -9.7 77 0.0 27 12   98.25   -12 LegendNANA
09:00 -5.6 -8.8 78 0.0 28 20   98.26   -12 LegendNANA
10:00 -5.0 -7.8 81 0.0 28 19   98.24   -11 LegendNANA
11:00 -4.5 -8.4 74 0.0 29 22   98.19   -11 LegendNANA
12:00 -3.6 -10.0 61 0.0 29 21   98.18   -10 LegendNANA
13:00 -3.4 -10.6 57 0.0 30 21   98.13   -10 LegendNANA
14:00 -2.7 -11.4 51 0.0 30 20   98.08   -9 LegendNANA
15:00 -3.1 -10.5 57 0.0 29 25   98.05   -10 LegendNANA
16:00 -3.5 -9.4 64 0.0 27 20   98.05   -10 LegendNANA
17:00 -3.8 -10.0 62 0.0 29 22   98.03   -10 LegendNANA
18:00 -4.2 -9.9 65 0.0 29 16   98.02   -10 LegendNANA
19:00 -4.6 -10.4 64 0.0 27 17   98.04   -10 LegendNANA
20:00 -5.2 -9.8 70 0.0 27 19   98.07   -12 LegendNANA
21:00 -6.0 -9.5 76 0.0 26 15   98.07   -12 LegendNANA
22:00 -6.0 -9.9 74 0.0 26 15   98.06   -12 LegendNANA
23:00 -6.4 -9.7 77 0.0 26 14   98.04   -12 LegendNANA

Notes on Data Quality.

Legend

  • E = Estimated
  • M = Missing
  • NA = Not Available*
  • [empty] = Indicates an unobserved value
Date modified: